Terminal Aerodrome Forecast
Issued by NWS Amarillo, TX

Home | Current Version | Previous Version | Text Only | Print | Product List | Glossary On
Versions: 1 2 3 4 5 6 7 8 9 10 11 12 13 14 15
000
FTUS44 KAMA 281700
TAFAMA
TAF
KAMA 281729Z 2818/2918 30018KT P6SM SCT300
     FM290000 30007KT P6SM SCT200
     FM291400 01018G28KT P6SM OVC150=

USA.gov is the U.S. government's official web portal to all federal, state and local government web resources and services.